Colorado City, AZ

6:53 AM MST on November 19, 2019 (GMT -0700)
Colorado City Municipal

Weather History for KAZC - September, 2019

Change the Weather History Date:

Wednesday, September 18, 2019

  Actual Average (KSGU) Record (KSGU)
Temperature  
Mean Temperature 64 °F -  
Max Temperature 87 °F 92 °F 104 °F (1962)
Min Temperature 41 °F 58 °F 38 °F (1965)
Degree Days  
Heating Degree Days 1    
Growing Degree Days 14 (Base 50)    
Moisture  
Dew Point 23 °F    
Average Humidity 24    
Maximum Humidity 49    
Minimum Humidity 8    
Precipitation  
Precipitation 0.00 in - - ()
Sea Level Pressure  
Sea Level Pressure 30.05 in    
Wind  
Wind Speed 7 mph (South)    
Max Wind Speed 17 mph    
Max Gust Speed 28 mph    
Visibility 10 miles    
Events      
Averages and records for this station are not official NWS values.
T = Trace of Precipitation, MM = Missing Value Source: NWS Daily Summary

Daily Weather History Graph

Daily Weather History Graph

Search for Another Location

Airport or City:

Astronomy

Sep. 18, 2019 Rise Set
Actual Time 6:16 AM MST 6:35 PM MST
Civil Twilight 5:50 AM MST 7:01 PM MST
Nautical Twilight 5:20 AM MST 7:31 PM MST
Astronomical Twilight 4:49 AM MST 8:02 PM MST
Moon 9:17 PM MST (9/18) 10:18 AM MST (9/18)
Length of Visible Light 13h 10m
Length of Day
12h 18m
Waning Gibbous, 82% of the Moon is Illuminated
Sep 18
Waning Gibbous
Sep 21
Last Quarter
Sep 28
New
Oct 5
First Quarter
Oct 13
Full

Hourly Weather History & Observations

Time (MST) Temp. Windchill Dew Point Humidity Pressure Visibility Wind Dir Wind Speed Gust Speed Precip Events Conditions
12:15 AM 46.4 °F 43.5 °F 21.2 °F 37% 30.08 in - SE 5.8 mph - N/A   Clear
12:35 AM 44.6 °F 41.4 °F 21.2 °F 39% 30.08 in - ESE 5.8 mph - N/A   Clear
12:55 AM 46.4 °F 43.5 °F 23.0 °F 40% 30.08 in - SE 5.8 mph - N/A   Clear
1:15 AM 46.4 °F 44.3 °F 21.2 °F 37% 30.08 in - SSE 4.6 mph - N/A   Clear
1:35 AM 46.4 °F 44.3 °F 23.0 °F 40% 30.08 in - ESE 4.6 mph - N/A   Clear
1:55 AM 46.4 °F 44.3 °F 23.0 °F 40% 30.08 in - ESE 4.6 mph - N/A   Clear
2:15 AM 50.0 °F - 23.0 °F 35% 30.08 in - SE 5.8 mph - N/A   Clear
2:35 AM 50.0 °F - 23.0 °F 35% 30.08 in - North - - N/A   Clear
2:55 AM 46.4 °F 42.9 °F 23.0 °F 40% 30.08 in - SE 6.9 mph - N/A   Clear
3:15 AM 46.4 °F 44.3 °F 23.0 °F 40% 30.08 in - ESE 4.6 mph - N/A   Clear
3:35 AM 46.4 °F 43.5 °F 23.0 °F 40% 30.08 in - SSE 5.8 mph - N/A   Clear
3:55 AM 46.4 °F 44.3 °F 23.0 °F 40% 30.08 in - SSE 4.6 mph - N/A   Clear
4:15 AM 42.8 °F 41.1 °F 23.0 °F 46% 30.08 in - SSE 3.5 mph - N/A   Clear
4:35 AM 44.6 °F 40.7 °F 23.0 °F 43% 30.07 in - SE 6.9 mph - N/A   Clear
4:55 AM 44.6 °F 40.7 °F 23.0 °F 43% 30.08 in - SE 6.9 mph - N/A   Clear
5:15 AM 44.6 °F 43.1 °F 23.0 °F 43% 30.08 in - SE 3.5 mph - N/A   Clear
5:35 AM 44.6 °F 43.1 °F 23.0 °F 43% 30.08 in - ESE 3.5 mph - N/A   Clear
5:55 AM 42.8 °F 39.3 °F 23.0 °F 46% 30.08 in - SSE 5.8 mph - N/A   Clear
6:15 AM 41.0 °F - 23.0 °F 49% 30.09 in 10.0 mi Calm Calm - N/A   Clear
6:35 AM 44.6 °F - 24.8 °F 46% 30.09 in 10.0 mi Calm Calm - N/A   Clear
6:55 AM 46.4 °F - 26.6 °F 46% 30.10 in 10.0 mi Calm Calm - N/A   Clear
7:15 AM 50.0 °F - 26.6 °F 40% 30.10 in 10.0 mi Calm Calm - N/A   Clear
7:35 AM 53.6 °F - 26.6 °F 35% 30.11 in 10.0 mi Calm Calm - N/A   Clear
7:55 AM 59.0 °F - 28.4 °F 31% 30.11 in 10.0 mi Calm Calm - N/A   Clear
8:15 AM 64.4 °F - 30.2 °F 28% 30.11 in 10.0 mi Calm Calm - N/A   Clear
8:35 AM 71.6 °F - 30.2 °F 22% 30.11 in 10.0 mi SE 12.7 mph - N/A   Clear
8:55 AM 73.4 °F - 30.2 °F 20% 30.11 in 10.0 mi SE 11.5 mph - N/A   Clear
9:15 AM 75.2 °F - 32.0 °F 21% 30.11 in 10.0 mi SE 10.4 mph - N/A   Clear
9:35 AM 77.0 °F - 32.0 °F 19% 30.11 in 10.0 mi ESE 11.5 mph 17.3 mph N/A   Clear
9:55 AM 77.0 °F - 32.0 °F 19% 30.11 in 10.0 mi ESE 10.4 mph 16.1 mph N/A   Clear
10:15 AM 78.8 °F - 33.8 °F 20% 30.11 in 10.0 mi SE 3.5 mph - N/A   Clear
10:35 AM 78.8 °F - 35.6 °F 21% 30.11 in 10.0 mi SSW 4.6 mph 16.1 mph N/A   Clear
10:55 AM 80.6 °F - 33.8 °F 18% 30.11 in 10.0 mi South 13.8 mph 27.6 mph N/A   Clear
11:15 AM 82.4 °F - 30.2 °F 15% 30.09 in 10.0 mi South 15.0 mph 24.2 mph N/A   Clear
11:35 AM 82.4 °F - 28.4 °F 14% 30.09 in 10.0 mi SSW 13.8 mph 21.9 mph N/A   Clear
11:55 AM 82.4 °F - 26.6 °F 13% 30.08 in 10.0 mi SW 15.0 mph 21.9 mph N/A   Clear
12:15 PM 84.2 °F - 26.6 °F 12% 30.08 in 10.0 mi South 13.8 mph 18.4 mph N/A   Clear
12:35 PM 84.2 °F - 26.6 °F 12% 30.07 in 10.0 mi SW 15.0 mph 23.0 mph N/A   Clear
12:55 PM 86.0 °F - 28.4 °F 12% 30.06 in 10.0 mi SSW 3.5 mph 20.7 mph N/A   Clear
1:15 PM 86.0 °F - 28.4 °F 12% 30.05 in 10.0 mi SSW 15.0 mph 23.0 mph N/A   Clear
1:35 PM 86.0 °F - 26.6 °F 12% 30.05 in 10.0 mi SSW 13.8 mph 23.0 mph N/A   Clear
1:55 PM 87.8 °F - 26.6 °F 11% 30.04 in 10.0 mi SW 13.8 mph 21.9 mph N/A   Clear
2:15 PM 87.8 °F - 24.8 °F 10% 30.03 in 10.0 mi SSW 9.2 mph 21.9 mph N/A   Clear
2:35 PM 87.8 °F - 24.8 °F 10% 30.02 in 10.0 mi South 11.5 mph 25.3 mph N/A   Clear
3:15 PM 87.8 °F - 21.2 °F 9% 30.01 in 10.0 mi SW 17.3 mph 26.5 mph N/A   Clear
3:35 PM 87.8 °F - 21.2 °F 9% 30.00 in 10.0 mi SW 12.7 mph 25.3 mph N/A   Clear
3:55 PM 87.8 °F - 21.2 °F 9% 30.00 in 10.0 mi SW 17.3 mph 21.9 mph N/A   Clear
4:15 PM 87.8 °F - 19.4 °F 8% 29.99 in 10.0 mi SW 16.1 mph 23.0 mph N/A   Clear
4:35 PM 87.8 °F - 21.2 °F 9% 29.99 in 10.0 mi SSW 17.3 mph 23.0 mph N/A   Clear
4:55 PM 86.0 °F - 19.4 °F 9% 29.98 in 10.0 mi SW 13.8 mph 20.7 mph N/A   Clear
5:15 PM 86.0 °F - 19.4 °F 9% 29.98 in 10.0 mi SW 16.1 mph 19.6 mph N/A   Clear
5:35 PM 86.0 °F - 21.2 °F 9% 29.98 in 10.0 mi SW 15.0 mph 19.6 mph N/A   Clear
5:55 PM 82.4 °F - 19.4 °F 10% 29.98 in 10.0 mi WSW 17.3 mph 21.9 mph N/A   Clear
6:15 PM 82.4 °F - 17.6 °F 9% 29.98 in 10.0 mi WSW 8.1 mph 18.4 mph N/A   Clear
6:35 PM 78.8 °F - 14.0 °F 9% 29.98 in 10.0 mi West 5.8 mph - N/A   Clear
6:55 PM 73.4 °F - 14.0 °F 10% 29.98 in 10.0 mi West 4.6 mph - N/A   Clear
7:15 PM 71.6 °F - 14.0 °F 11% 29.99 in - West 5.8 mph - N/A   Clear
7:35 PM 64.4 °F - 12.2 °F 13% 29.99 in 10.0 mi ENE 3.5 mph - N/A   Clear
7:55 PM 60.8 °F - 14.0 °F 16% 30.00 in - ESE 9.2 mph - N/A   Clear
8:15 PM 64.4 °F - 12.2 °F 13% 30.00 in 10.0 mi East 4.6 mph - N/A   Clear
8:35 PM 62.6 °F - 12.2 °F 14% 30.00 in 10.0 mi Calm Calm - N/A   Clear
8:55 PM 59.0 °F - 17.6 °F 20% 30.00 in 10.0 mi Calm Calm - N/A   Clear
9:15 PM 51.8 °F - 21.2 °F 30% 30.00 in 10.0 mi Calm Calm - N/A   Clear
9:35 PM 50.0 °F - 17.6 °F 28% 30.01 in 10.0 mi ESE 5.8 mph - N/A   Clear
9:55 PM 51.8 °F - 14.0 °F 22% 30.01 in 10.0 mi Calm Calm - N/A   Clear
10:15 PM 50.0 °F - 14.0 °F 24% 30.01 in - SE 3.5 mph - N/A   Clear
10:35 PM 48.2 °F - 15.8 °F 27% 30.00 in - Calm Calm - N/A   Clear
10:55 PM 50.0 °F - 15.8 °F 26% 30.01 in 10.0 mi SSE 3.5 mph - N/A   Clear
11:15 PM 50.0 °F - 15.8 °F 26% 30.01 in 10.0 mi Calm Calm - N/A   Clear
11:35 PM 50.0 °F - 15.8 °F 26% 30.01 in - Calm Calm - N/A   Clear
11:55 PM 50.0 °F - 21.2 °F 32% 30.00 in 10.0 mi Calm Calm - N/A   Clear